| time (UTC) | temp C | wind direction | speed KPH | gust KPH | rain 1hr cm | rain 24hr cm | rain mn cm | humidity % | barometer mb |
| 20260510054526 | 8 | 87 | 0.0 | 12.9 | 0.00 | 0.00 | 0.00 | 82 | 1017.8 |
| 20260510054025 | 8 | 166 | 4.8 | 12.9 | 0.00 | 0.00 | 0.00 | 82 | 1017.7 |
| 20260510053525 | 8 | 175 | 1.6 | 6.4 | 0.00 | 0.00 | 0.00 | 82 | 1017.8 |
| 20260510053045 | 8 | 227 | 0.0 | 8.0 | 0.00 | 0.00 | 0.00 | 83 | 1017.8 |
| 20260510052525 | 8 | 83 | 1.6 | 8.0 | 0.00 | 0.00 | 0.00 | 83 | 1017.8 |
| 20260510052024 | 8 | 62 | 0.0 | 6.4 | 0.00 | 0.00 | 0.00 | 84 | 1017.8 |
| 20260510051526 | 8 | 59 | 1.6 | 8.0 | 0.00 | 0.00 | 0.00 | 84 | 1017.8 |
| 20260510051023 | 8 | 79 | 1.6 | 8.0 | 0.00 | 0.00 | 0.00 | 84 | 1017.8 |
| 20260510050523 | 8 | 167 | 1.6 | 6.4 | 0.00 | 0.00 | 0.00 | 84 | 1017.9 |
| 20260510050028 | 7 | 80 | 1.6 | 8.0 | 0.00 | 0.00 | 0.00 | 84 | 1017.9 |
| 20260510045522 | 7 | 77 | 3.2 | 8.0 | 0.00 | 0.00 | 0.00 | 84 | 1017.9 |
| 20260510045022 | 7 | 65 | 1.6 | 12.9 | 0.00 | 0.00 | 0.00 | 85 | 1017.9 |
| 20260510044522 | 7 | 83 | 1.6 | 12.9 | 0.00 | 0.00 | 0.00 | 85 | 1018.0 |
| 20260510044021 | 7 | 80 | 3.2 | 9.7 | 0.00 | 0.00 | 0.00 | 85 | 1017.9 |
| 20260510043520 | 7 | 69 | 3.2 | 9.7 | 0.00 | 0.00 | 0.00 | 85 | 1017.8 |
| 20260510043036 | 7 | 82 | 1.6 | 6.4 | 0.00 | 0.00 | 0.00 | 86 | 1017.8 |
| 20260510042518 | 7 | 5 | 3.2 | 6.4 | 0.00 | 0.00 | 0.00 | 85 | 1017.8 |
| 20260510042018 | 7 | 71 | 1.6 | 6.4 | 0.00 | 0.00 | 0.00 | 85 | 1017.9 |
| 20260510041525 | 7 | 76 | 3.2 | 6.4 | 0.00 | 0.00 | 0.00 | 85 | 1018.0 |
| 20260510041018 | 7 | 55 | 1.6 | 6.4 | 0.00 | 0.00 | 0.00 | 85 | 1017.9 |
| 20260510040518 | 7 | 136 | 3.2 | 6.4 | 0.00 | 0.00 | 0.00 | 86 | 1018.1 |
| 20260510040032 | 7 | 69 | 1.6 | 4.8 | 0.00 | 0.00 | 0.00 | 86 | 1018.0 |
| 20260510035516 | 7 | 73 | 1.6 | 6.4 | 0.00 | 0.00 | 0.00 | 85 | 1018.0 |
| 20260510035016 | 7 | 71 | 1.6 | 6.4 | 0.00 | 0.00 | 0.00 | 85 | 1017.9 |
| 20260510034614 | 7 | 63 | 1.6 | 4.8 | 0.00 | 0.00 | 0.00 | 85 | 1018.0 |
| 20260510034015 | 7 | 39 | 1.6 | 9.7 | 0.00 | 0.00 | 0.00 | 85 | 1017.9 |
| 20260510033512 | 7 | 53 | 1.6 | 6.4 | 0.00 | 0.00 | 0.00 | 85 | 1017.9 |
| 20260510033012 | 7 | 24 | 3.2 | 6.4 | 0.00 | 0.00 | 0.00 | 84 | 1017.9 |
| 20260510032514 | 7 | 57 | 1.6 | 4.8 | 0.00 | 0.00 | 0.00 | 85 | 1017.8 |
| 20260510032011 | 7 | 138 | 0.0 | 9.7 | 0.00 | 0.00 | 0.00 | 84 | 1017.8 |
| 20260510031511 | 7 | 95 | 3.2 | 9.7 | 0.00 | 0.00 | 0.00 | 84 | 1017.9 |
| 20260510031010 | 7 | 34 | 1.6 | 9.7 | 0.00 | 0.00 | 0.00 | 84 | 1017.7 |
| 20260510030509 | 7 | 11 | 3.2 | 8.0 | 0.00 | 0.00 | 0.00 | 84 | 1017.9 |
| 20260510030009 | 7 | 38 | 1.6 | 4.8 | 0.00 | 0.00 | 0.00 | 84 | 1017.9 |
| 20260510025508 | 7 | 32 | 1.6 | 6.4 | 0.00 | 0.00 | 0.00 | 84 | 1017.9 |
| 20260510025008 | 7 | 68 | 1.6 | 6.4 | 0.00 | 0.00 | 0.00 | 83 | 1018.1 |
| 20260510024507 | 7 | 76 | 1.6 | 6.4 | 0.00 | 0.00 | 0.00 | 83 | 1018.0 |
| 20260510024010 | 7 | 69 | 1.6 | 6.4 | 0.00 | 0.00 | 0.00 | 83 | 1018.1 |
| 20260510023506 | 7 | 66 | 1.6 | 6.4 | 0.00 | 0.00 | 0.00 | 84 | 1018.2 |
| 20260510023007 | 7 | 5 | 1.6 | 9.7 | 0.00 | 0.00 | 0.00 | 84 | 1018.3 |
| 20260510022505 | 7 | 93 | 3.2 | 6.4 | 0.00 | 0.00 | 0.00 | 83 | 1018.3 |
| 20260510022004 | 7 | 75 | 0.0 | 11.3 | 0.00 | 0.00 | 0.00 | 83 | 1018.2 |
| 20260510021514 | 7 | 89 | 3.2 | 11.3 | 0.00 | 0.00 | 0.00 | 83 | 1018.5 |
| 20260510021004 | 7 | 101 | 3.2 | 6.4 | 0.00 | 0.00 | 0.00 | 82 | 1018.6 |
| 20260510020502 | 7 | 59 | 1.6 | 6.4 | 0.00 | 0.00 | 0.00 | 82 | 1018.6 |
| 20260510020002 | 7 | 40 | 0.0 | 9.7 | 0.00 | 0.00 | 0.00 | 83 | 1018.7 |
| 20260510015505 | 7 | 82 | 1.6 | 9.7 | 0.00 | 0.00 | 0.00 | 83 | 1018.8 |
| 20260510015001 | 7 | 52 | 0.0 | 4.8 | 0.00 | 0.00 | 0.00 | 84 | 1018.8 |
| 20260510014503 | 7 | 45 | 0.0 | 4.8 | 0.00 | 0.00 | 0.00 | 84 | 1018.7 |
| 20260510014002 | 7 | 80 | 1.6 | 6.4 | 0.00 | 0.00 | 0.00 | 83 | 1018.7 |
| 20260510013502 | 7 | 80 | 1.6 | 8.0 | 0.00 | 0.00 | 0.00 | 83 | 1018.8 |
| 20260510013100 | 7 | 23 | 1.6 | 8.0 | 0.00 | 0.00 | 0.00 | 83 | 1018.6 |
| 20260510012600 | 7 | 56 | 1.6 | 6.4 | 0.00 | 0.00 | 0.00 | 83 | 1018.7 |
| 20260510012101 | 7 | 48 | 3.2 | 6.4 | 0.00 | 0.00 | 0.00 | 84 | 1018.9 |
| 20260510011559 | 7 | 61 | 1.6 | 8.0 | 0.00 | 0.00 | 0.00 | 84 | 1018.8 |
| 20260510011158 | 7 | 82 | 3.2 | 8.0 | 0.00 | 0.00 | 0.00 | 85 | 1018.9 |
| 20260510010557 | 7 | 59 | 3.2 | 6.4 | 0.00 | 0.00 | 0.00 | 84 | 1019.0 |
| 20260510010056 | 7 | 26 | 1.6 | 6.4 | 0.00 | 0.00 | 0.00 | 84 | 1019.1 |
| 20260510005555 | 7 | 339 | 1.6 | 6.4 | 0.00 | 0.00 | 0.00 | 84 | 1019.3 |
| 20260510005054 | 7 | 40 | 1.6 | 6.4 | 0.00 | 0.00 | 0.00 | 83 | 1019.4 |
| 20260510004559 | 7 | 53 | 1.6 | 6.4 | 0.00 | 0.00 | 0.00 | 83 | 1019.4 |
| 20260510004054 | 8 | 97 | 3.2 | 6.4 | 0.00 | 0.00 | 0.00 | 83 | 1019.4 |
| 20260510003554 | 8 | 88 | 0.0 | 6.4 | 0.00 | 0.00 | 0.00 | 82 | 1019.4 |
| 20260510003055 | 8 | 77 | 3.2 | 6.4 | 0.00 | 0.00 | 0.00 | 82 | 1019.5 |
| 20260510002552 | 8 | 47 | 1.6 | 6.4 | 0.00 | 0.00 | 0.00 | 82 | 1019.5 |
| 20260510002052 | 8 | 59 | 1.6 | 6.4 | 0.00 | 0.00 | 0.00 | 82 | 1019.6 |
| 20260510001552 | 8 | 69 | 3.2 | 6.4 | 0.00 | 0.00 | 0.00 | 82 | 1019.7 |
| 20260510001051 | 8 | 342 | 1.6 | 8.0 | 0.00 | 0.00 | 0.00 | 82 | 1019.7 |
| 20260510000554 | 7 | 69 | 3.2 | 8.0 | 0.00 | 0.00 | 0.00 | 83 | 1019.7 |
| 20260510000058 | 7 | 61 | 1.6 | 8.0 | 0.00 | 0.00 | 0.00 | 83 | 1019.6 |
| 20260509235553 | 7 | 343 | 1.6 | 8.0 | 0.00 | 0.00 | 0.00 | 83 | 1019.7 |
| 20260509235050 | 7 | 17 | 1.6 | 6.4 | 0.00 | 0.00 | 0.00 | 83 | 1019.7 |
| 20260509234550 | 7 | 53 | 1.6 | 6.4 | 0.00 | 0.00 | 0.00 | 83 | 1019.8 |
| 20260509234049 | 7 | 17 | 1.6 | 6.4 | 0.00 | 0.00 | 0.00 | 83 | 1019.8 |
| 20260509233548 | 7 | 311 | 1.6 | 4.8 | 0.00 | 0.00 | 0.00 | 83 | 1019.8 |
| 20260509233047 | 8 | 290 | 1.6 | 6.4 | 0.00 | 0.00 | 0.00 | 83 | 1019.9 |
| 20260509232548 | 8 | 12 | 1.6 | 8.0 | 0.00 | 0.00 | 0.00 | 83 | 1020.0 |
| 20260509232046 | 8 | 22 | 1.6 | 9.7 | 0.00 | 0.00 | 0.00 | 82 | 1020.1 |
| 20260509231546 | 8 | 287 | 1.6 | 9.7 | 0.00 | 0.00 | 0.00 | 83 | 1020.0 |
| 20260509231047 | 8 | 71 | 1.6 | 9.7 | 0.00 | 0.00 | 0.00 | 82 | 1020.0 |
| 20260509230544 | 8 | 9 | 1.6 | 6.4 | 0.00 | 0.00 | 0.00 | 82 | 1020.1 |
| 20260509230044 | 8 | 343 | 1.6 | 6.4 | 0.00 | 0.00 | 0.00 | 82 | 1020.1 |
| 20260509225544 | 8 | 44 | 1.6 | 6.4 | 0.00 | 0.00 | 0.00 | 82 | 1020.2 |
| 20260509225042 | 8 | 36 | 1.6 | 6.4 | 0.00 | 0.00 | 0.00 | 82 | 1020.2 |
| 20260509224543 | 8 | 99 | 1.6 | 6.4 | 0.00 | 0.00 | 0.00 | 82 | 1020.2 |
| 20260509224042 | 8 | 9 | 1.6 | 6.4 | 0.00 | 0.00 | 0.00 | 82 | 1020.1 |
| 20260509223542 | 8 | 103 | 3.2 | 9.7 | 0.00 | 0.00 | 0.00 | 82 | 1020.1 |
| 20260509223042 | 8 | 85 | 1.6 | 6.4 | 0.00 | 0.00 | 0.00 | 82 | 1020.2 |
| 20260509222541 | 8 | 40 | 0.0 | 4.8 | 0.00 | 0.00 | 0.00 | 82 | 1020.2 |
| 20260509222040 | 8 | 24 | 3.2 | 8.0 | 0.00 | 0.00 | 0.00 | 82 | 1020.3 |
| 20260509221540 | 8 | 78 | 3.2 | 8.0 | 0.00 | 0.00 | 0.00 | 82 | 1020.3 |
| 20260509221039 | 8 | 32 | 1.6 | 6.4 | 0.00 | 0.00 | 0.00 | 83 | 1020.4 |
| 20260509220538 | 8 | 52 | 0.0 | 4.8 | 0.00 | 0.00 | 0.00 | 83 | 1020.5 |
| 20260509220039 | 8 | 41 | 0.0 | 4.8 | 0.00 | 0.00 | 0.00 | 83 | 1020.5 |
| 20260509215537 | 8 | 44 | 1.6 | 6.4 | 0.00 | 0.00 | 0.00 | 83 | 1020.5 |
| 20260509215036 | 8 | 343 | 1.6 | 6.4 | 0.00 | 0.00 | 0.00 | 83 | 1020.5 |
| 20260509214547 | 8 | 44 | 0.0 | 4.8 | 0.00 | 0.00 | 0.00 | 83 | 1020.5 |
| 20260509214036 | 8 | 33 | 0.0 | 8.0 | 0.00 | 0.00 | 0.00 | 83 | 1020.4 |
| 20260509213536 | 8 | 142 | 1.6 | 9.7 | 0.00 | 0.00 | 0.00 | 82 | 1020.4 |
| 20260509213037 | 8 | 50 | 3.2 | 9.7 | 0.00 | 0.00 | 0.00 | 83 | 1020.5 |
| 20260509212635 | 8 | 42 | 1.6 | 6.4 | 0.00 | 0.00 | 0.00 | 84 | 1020.3 |
| 20260509212035 | 8 | 303 | 1.6 | 4.8 | 0.00 | 0.00 | 0.00 | 84 | 1020.3 |
| 20260509211535 | 8 | 38 | 1.6 | 4.8 | 0.00 | 0.00 | 0.00 | 84 | 1020.3 |
| 20260509211035 | 8 | 13 | 0.0 | 6.4 | 0.00 | 0.00 | 0.00 | 84 | 1020.5 |
| 20260509210535 | 8 | 170 | 0.0 | 4.8 | 0.00 | 0.00 | 0.00 | 85 | 1020.5 |
| 20260509210039 | 8 | 324 | 1.6 | 4.8 | 0.00 | 0.00 | 0.00 | 84 | 1020.5 |
| 20260509205536 | 8 | 269 | 0.0 | 6.4 | 0.00 | 0.00 | 0.00 | 85 | 1020.5 |
| 20260509205035 | 8 | 16 | 1.6 | 6.4 | 0.00 | 0.00 | 0.00 | 85 | 1020.5 |
| 20260509204536 | 8 | 269 | 0.0 | 4.8 | 0.00 | 0.00 | 0.00 | 85 | 1020.6 |
| 20260509204034 | 8 | 267 | 1.6 | 8.0 | 0.00 | 0.00 | 0.00 | 85 | 1020.6 |
| 20260509203536 | 8 | 49 | 1.6 | 8.0 | 0.00 | 0.00 | 0.00 | 86 | 1020.6 |
| 20260509203033 | 8 | 307 | 0.0 | 4.8 | 0.00 | 0.00 | 0.00 | 86 | 1020.7 |
| 20260509202533 | 8 | 307 | 1.6 | 4.8 | 0.00 | 0.00 | 0.00 | 85 | 1020.5 |
| 20260509202034 | 8 | 307 | 1.6 | 6.4 | 0.00 | 0.00 | 0.00 | 85 | 1020.5 |
| 20260509201533 | 8 | 208 | 1.6 | 6.4 | 0.00 | 0.00 | 0.00 | 85 | 1020.5 |
| 20260509201033 | 8 | 304 | 0.0 | 3.2 | 0.00 | 0.00 | 0.00 | 85 | 1020.6 |
| 20260509200533 | 8 | 304 | 0.0 | 4.8 | 0.00 | 0.00 | 0.00 | 84 | 1020.5 |
| 20260509200035 | 8 | 304 | 1.6 | 4.8 | 0.00 | 0.00 | 0.00 | 84 | 1020.5 |
| 20260509195533 | 8 | 342 | 1.6 | 3.2 | 0.00 | 0.00 | 0.00 | 83 | 1020.5 |
| 20260509195032 | 8 | 355 | 0.0 | 4.8 | 0.00 | 0.00 | 0.00 | 83 | 1020.5 |
| 20260509194534 | 8 | 333 | 1.6 | 9.7 | 0.00 | 0.00 | 0.00 | 83 | 1020.5 |
| 20260509194032 | 8 | 342 | 1.6 | 9.7 | 0.00 | 0.00 | 0.00 | 83 | 1020.5 |
| 20260509193532 | 8 | 29 | 1.6 | 9.7 | 0.00 | 0.00 | 0.00 | 82 | 1020.4 |
| 20260509193033 | 8 | 5 | 1.6 | 6.4 | 0.00 | 0.00 | 0.00 | 83 | 1020.4 |
| 20260509192531 | 9 | 66 | 1.6 | 4.8 | 0.00 | 0.00 | 0.00 | 83 | 1020.5 |
| 20260509192031 | 9 | 67 | 1.6 | 4.8 | 0.00 | 0.00 | 0.00 | 83 | 1020.5 |
| 20260509191545 | 9 | 58 | 1.6 | 6.4 | 0.00 | 0.00 | 0.00 | 83 | 1020.4 |
| 20260509191030 | 9 | 61 | 1.6 | 6.4 | 0.00 | 0.00 | 0.00 | 83 | 1020.5 |
| 20260509190533 | 9 | 12 | 1.6 | 4.8 | 0.00 | 0.00 | 0.00 | 83 | 1020.4 |
| 20260509190032 | 9 | 94 | 0.0 | 6.4 | 0.00 | 0.00 | 0.00 | 82 | 1020.3 |
| 20260509185530 | 9 | 94 | 0.0 | 6.4 | 0.00 | 0.00 | 0.00 | 82 | 1020.4 |
| 20260509185030 | 9 | 87 | 1.6 | 6.4 | 0.00 | 0.00 | 0.00 | 81 | 1020.4 |
| 20260509184543 | 9 | 67 | 1.6 | 6.4 | 0.00 | 0.00 | 0.00 | 81 | 1020.4 |
| 20260509184030 | 9 | 33 | 0.0 | 6.4 | 0.00 | 0.00 | 0.00 | 81 | 1020.3 |
| 20260509183530 | 9 | 331 | 0.0 | 4.8 | 0.00 | 0.00 | 0.00 | 81 | 1020.3 |
| 20260509183043 | 9 | 34 | 1.6 | 4.8 | 0.00 | 0.00 | 0.00 | 81 | 1020.3 |
| 20260509182530 | 9 | 49 | 1.6 | 6.4 | 0.00 | 0.00 | 0.00 | 81 | 1020.1 |
| 20260509182028 | 9 | 56 | 1.6 | 4.8 | 0.00 | 0.00 | 0.00 | 81 | 1020.1 |
| 20260509181528 | 9 | 54 | 0.0 | 6.4 | 0.00 | 0.00 | 0.00 | 81 | 1020.3 |
| 20260509181028 | 10 | 10 | 0.0 | 3.2 | 0.00 | 0.00 | 0.00 | 81 | 1020.4 |
| 20260509180527 | 10 | 10 | 0.0 | 4.8 | 0.00 | 0.00 | 0.00 | 80 | 1020.4 |
| 20260509180028 | 10 | 63 | 1.6 | 4.8 | 0.00 | 0.00 | 0.00 | 80 | 1020.5 |
| 20260509175527 | 10 | 79 | 0.0 | 3.2 | 0.00 | 0.00 | 0.00 | 80 | 1020.5 |
| 20260509175027 | 10 | 84 | 0.0 | 1.6 | 0.00 | 0.00 | 0.00 | 80 | 1020.5 |
| 20260509174527 | 10 | 84 | 0.0 | 0.0 | 0.00 | 0.00 | 0.00 | 81 | 1020.5 |
| 20260509174027 | 10 | 84 | 0.0 | 0.0 | 0.00 | 0.00 | 0.00 | 80 | 1020.5 |
| 20260509173526 | 10 | 84 | 0.0 | 3.2 | 0.00 | 0.00 | 0.00 | 80 | 1020.5 |
| 20260509173026 | 10 | 84 | 0.0 | 3.2 | 0.00 | 0.00 | 0.00 | 78 | 1020.6 |
| 20260509172526 | 11 | 87 | 0.0 | 3.2 | 0.00 | 0.00 | 0.00 | 77 | 1020.4 |
| 20260509172025 | 11 | 55 | 0.0 | 4.8 | 0.00 | 0.00 | 0.00 | 76 | 1020.6 |
| 20260509171526 | 11 | 61 | 1.6 | 6.4 | 0.00 | 0.00 | 0.00 | 75 | 1020.6 |
| 20260509171024 | 11 | 58 | 1.6 | 6.4 | 0.00 | 0.00 | 0.00 | 75 | 1020.6 |
| 20260509170527 | 11 | 72 | 0.0 | 8.0 | 0.00 | 0.00 | 0.00 | 74 | 1020.6 |
| 20260509170025 | 11 | 88 | 1.6 | 9.7 | 0.00 | 0.00 | 0.00 | 73 | 1020.7 |
| 20260509165523 | 11 | 63 | 3.2 | 12.9 | 0.00 | 0.00 | 0.00 | 74 | 1020.7 |
| 20260509165023 | 11 | 65 | 4.8 | 12.9 | 0.00 | 0.00 | 0.00 | 72 | 1020.8 |
| 20260509164523 | 12 | 89 | 3.2 | 12.9 | 0.00 | 0.00 | 0.00 | 73 | 1020.7 |
| 20260509164024 | 12 | 103 | 0.0 | 9.7 | 0.00 | 0.00 | 0.00 | 73 | 1020.7 |
| 20260509163523 | 12 | 94 | 1.6 | 9.7 | 0.00 | 0.00 | 0.00 | 74 | 1020.8 |
| 20260509163032 | 12 | 90 | 3.2 | 8.0 | 0.00 | 0.00 | 0.00 | 72 | 1020.6 |
| 20260509162522 | 12 | 89 | 3.2 | 9.7 | 0.00 | 0.00 | 0.00 | 72 | 1020.7 |
| 20260509162023 | 12 | 103 | 3.2 | 14.5 | 0.00 | 0.00 | 0.00 | 72 | 1020.8 |
| 20260509161521 | 12 | 87 | 4.8 | 11.3 | 0.00 | 0.00 | 0.00 | 74 | 1020.7 |
| 20260509161023 | 11 | 60 | 1.6 | 11.3 | 0.00 | 0.00 | 0.00 | 74 | 1020.8 |
| 20260509160521 | 11 | 86 | 1.6 | 9.7 | 0.00 | 0.00 | 0.00 | 74 | 1020.8 |
| 20260509160021 | 11 | 78 | 3.2 | 11.3 | 0.00 | 0.00 | 0.00 | 75 | 1020.8 |
| 20260509155521 | 11 | 96 | 3.2 | 11.3 | 0.00 | 0.00 | 0.00 | 73 | 1020.9 |
| 20260509155020 | 12 | 88 | 3.2 | 9.7 | 0.00 | 0.00 | 0.00 | 72 | 1021.0 |
| 20260509154521 | 12 | 92 | 3.2 | 9.7 | 0.00 | 0.00 | 0.00 | 71 | 1020.9 |
| 20260509154019 | 12 | 114 | 0.0 | 9.7 | 0.00 | 0.00 | 0.00 | 71 | 1021.0 |
| 20260509153519 | 12 | 63 | 0.0 | 6.4 | 0.00 | 0.00 | 0.00 | 71 | 1021.0 |
| 20260509153024 | 12 | 82 | 1.6 | 9.7 | 0.00 | 0.00 | 0.00 | 69 | 1021.0 |
| 20260509152517 | 12 | 104 | 1.6 | 9.7 | 0.00 | 0.00 | 0.00 | 72 | 1021.1 |
| 20260509152016 | 12 | 69 | 3.2 | 6.4 | 0.00 | 0.00 | 0.00 | 70 | 1021.2 |
| 20260509151515 | 12 | 224 | 0.0 | 4.8 | 0.00 | 0.00 | 0.00 | 71 | 1021.0 |
| 20260509151014 | 12 | 230 | 1.6 | 4.8 | 0.00 | 0.00 | 0.00 | 70 | 1021.2 |
| 20260509150515 | 12 | 94 | 0.0 | 4.8 | 0.00 | 0.00 | 0.00 | 71 | 1021.0 |
| 20260509150013 | 11 | 90 | 0.0 | 4.8 | 0.00 | 0.00 | 0.00 | 69 | 1021.1 |
| 20260509145514 | 11 | 90 | 0.0 | 4.8 | 0.00 | 0.00 | 0.00 | 73 | 1021.1 |
| 20260509145013 | 11 | 43 | 0.0 | 8.0 | 0.00 | 0.00 | 0.00 | 71 | 1021.1 |
| 20260509144513 | 11 | 87 | 1.6 | 8.0 | 0.00 | 0.00 | 0.00 | 71 | 1021.2 |
| 20260509144015 | 11 | 88 | 1.6 | 6.4 | 0.00 | 0.00 | 0.00 | 71 | 1021.2 |
| 20260509143513 | 11 | 68 | 3.2 | 11.3 | 0.00 | 0.00 | 0.00 | 73 | 1021.3 |
| 20260509143012 | 11 | 116 | 3.2 | 11.3 | 0.00 | 0.00 | 0.00 | 71 | 1021.3 |
| 20260509142515 | 11 | 101 | 1.6 | 11.3 | 0.00 | 0.00 | 0.00 | 70 | 1021.2 |
| 20260509142011 | 11 | 98 | 4.8 | 11.3 | 0.00 | 0.00 | 0.00 | 70 | 1021.2 |
| 20260509141511 | 11 | 63 | 1.6 | 4.8 | 0.00 | 0.00 | 0.00 | 71 | 1021.4 |
| 20260509141010 | 11 | 83 | 0.0 | 4.8 | 0.00 | 0.00 | 0.00 | 74 | 1021.4 |
| 20260509140509 | 11 | 83 | 0.0 | 4.8 | 0.00 | 0.00 | 0.00 | 74 | 1021.4 |
| 20260509140013 | 11 | 73 | 0.0 | 3.2 | 0.00 | 0.00 | 0.00 | 75 | 1021.4 |
| 20260509135508 | 11 | 71 | 0.0 | 6.4 | 0.00 | 0.03 | 0.00 | 75 | 1021.5 |
| 20260509135009 | 11 | 88 | 0.0 | 9.7 | 0.00 | 0.03 | 0.00 | 75 | 1021.5 |
| 20260509134508 | 11 | 81 | 0.0 | 9.7 | 0.00 | 0.03 | 0.00 | 73 | 1021.6 |
| 20260509134007 | 11 | 69 | 3.2 | 8.0 | 0.00 | 0.03 | 0.00 | 72 | 1021.7 |
| 20260509133508 | 11 | 78 | 1.6 | 4.8 | 0.00 | 0.03 | 0.00 | 72 | 1021.6 |
| 20260509133008 | 11 | 77 | 0.0 | 6.4 | 0.00 | 0.03 | 0.00 | 74 | 1021.6 |
| 20260509132507 | 11 | 77 | 1.6 | 6.4 | 0.00 | 0.03 | 0.00 | 72 | 1021.6 |
| 20260509132007 | 11 | 107 | 0.0 | 9.7 | 0.00 | 0.03 | 0.00 | 72 | 1021.7 |
| 20260509131509 | 11 | 76 | 1.6 | 8.0 | 0.00 | 0.03 | 0.00 | 74 | 1021.7 |
| 20260509131006 | 11 | 59 | 3.2 | 9.7 | 0.00 | 0.03 | 0.00 | 73 | 1021.7 |
| 20260509130507 | 11 | 71 | 3.2 | 9.7 | 0.00 | 0.03 | 0.00 | 72 | 1021.8 |
| 20260509130018 | 11 | 100 | 3.2 | 9.7 | 0.00 | 0.03 | 0.00 | 72 | 1021.9 |
| 20260509125505 | 11 | 42 | 1.6 | 16.1 | 0.00 | 0.03 | 0.00 | 73 | 1021.9 |
| 20260509125008 | 12 | 109 | 1.6 | 9.7 | 0.00 | 0.03 | 0.00 | 73 | 1021.8 |
| 20260509124505 | 12 | 59 | 4.8 | 9.7 | 0.00 | 0.03 | 0.00 | 72 | 1021.9 |
| 20260509124007 | 12 | 106 | 0.0 | 4.8 | 0.00 | 0.03 | 0.00 | 77 | 1021.8 |
| 20260509123504 | 11 | 71 | 1.6 | 6.4 | 0.00 | 0.03 | 0.00 | 74 | 1021.9 |
| 20260509123005 | 11 | 283 | 0.0 | 6.4 | 0.00 | 0.03 | 0.00 | 73 | 1021.8 |
| 20260509122502 | 11 | 98 | 3.2 | 6.4 | 0.00 | 0.03 | 0.00 | 74 | 1022.0 |
| 20260509122001 | 11 | 251 | 1.6 | 4.8 | 0.00 | 0.03 | 0.00 | 75 | 1022.0 |
| 20260509121502 | 11 | 164 | 0.0 | 8.0 | 0.00 | 0.03 | 0.00 | 73 | 1022.0 |
| 20260509121004 | 11 | 101 | 3.2 | 8.0 | 0.00 | 0.03 | 0.00 | 73 | 1022.1 |
| 20260509120601 | 11 | 316 | 3.2 | 6.4 | 0.00 | 0.03 | 0.00 | 74 | 1022.1 |
| 20260509120101 | 11 | 80 | 1.6 | 6.4 | 0.00 | 0.03 | 0.00 | 75 | 1022.1 |
| 20260509115600 | 11 | 207 | 1.6 | 8.0 | 0.00 | 0.03 | 0.00 | 76 | 1022.2 |
| 20260509115100 | 11 | 91 | 3.2 | 9.7 | 0.00 | 0.03 | 0.00 | 76 | 1022.2 |
| 20260509114610 | 11 | 82 | 1.6 | 9.7 | 0.00 | 0.03 | 0.00 | 76 | 1022.2 |
| 20260509114059 | 11 | 90 | 1.6 | 9.7 | 0.00 | 0.03 | 0.00 | 76 | 1022.3 |
| 20260509113601 | 11 | 109 | 1.6 | 9.7 | 0.00 | 0.03 | 0.00 | 74 | 1022.3 |
| 20260509113158 | 11 | 67 | 3.2 | 9.7 | 0.00 | 0.03 | 0.00 | 73 | 1022.2 |
| 20260509112557 | 11 | 128 | 0.0 | 8.0 | 0.00 | 0.03 | 0.00 | 78 | 1022.2 |
| 20260509112056 | 11 | 80 | 3.2 | 8.0 | 0.00 | 0.03 | 0.00 | 74 | 1022.3 |
| 20260509111556 | 11 | 96 | 1.6 | 6.4 | 0.00 | 0.03 | 0.00 | 75 | 1022.4 |
| 20260509111056 | 11 | 138 | 0.0 | 4.8 | 0.00 | 0.03 | 0.00 | 74 | 1022.3 |
| 20260509110558 | 11 | 135 | 1.6 | 6.4 | 0.00 | 0.03 | 0.00 | 74 | 1022.4 |
| 20260509110104 | 11 | 253 | 0.0 | 6.4 | 0.00 | 0.03 | 0.00 | 77 | 1022.4 |
| 20260509105555 | 10 | 246 | 1.6 | 6.4 | 0.00 | 0.03 | 0.00 | 77 | 1022.3 |
| 20260509105055 | 10 | 101 | 3.2 | 6.4 | 0.00 | 0.03 | 0.00 | 74 | 1022.5 |
| 20260509104555 | 10 | 118 | 1.6 | 4.8 | 0.00 | 0.03 | 0.00 | 75 | 1022.5 |
| 20260509104154 | 10 | 72 | 1.6 | 6.4 | 0.00 | 0.03 | 0.00 | 74 | 1022.4 |
| 20260509103556 | 10 | 87 | 3.2 | 6.4 | 0.00 | 0.03 | 0.00 | 74 | 1022.5 |
| 20260509103101 | 10 | 59 | 1.6 | 4.8 | 0.00 | 0.03 | 0.00 | 75 | 1022.5 |
| 20260509102553 | 10 | 88 | 0.0 | 8.0 | 0.00 | 0.03 | 0.00 | 75 | 1022.5 |
| 20260509102054 | 10 | 88 | 0.0 | 8.0 | 0.00 | 0.03 | 0.00 | 77 | 1022.6 |
| 20260509101603 | 10 | 76 | 0.0 | 6.4 | 0.00 | 0.03 | 0.00 | 77 | 1022.5 |
| 20260509101052 | 10 | 83 | 3.2 | 6.4 | 0.00 | 0.03 | 0.00 | 77 | 1022.4 |
| 20260509100553 | 10 | 84 | 3.2 | 9.7 | 0.00 | 0.03 | 0.00 | 77 | 1022.6 |
| 20260509100053 | 10 | 115 | 3.2 | 9.7 | 0.00 | 0.03 | 0.00 | 76 | 1022.5 |
| 20260509095552 | 10 | 84 | 1.6 | 8.0 | 0.00 | 0.03 | 0.00 | 78 | 1022.6 |
| 20260509095052 | 10 | 269 | 1.6 | 6.4 | 0.00 | 0.03 | 0.00 | 78 | 1022.6 |
| 20260509094603 | 10 | 70 | 0.0 | 8.0 | 0.00 | 0.03 | 0.00 | 78 | 1022.6 |
| 20260509094052 | 10 | 86 | 4.8 | 8.0 | 0.00 | 0.03 | 0.00 | 77 | 1022.5 |
| 20260509093551 | 10 | 249 | 0.0 | 6.4 | 0.00 | 0.03 | 0.00 | 80 | 1022.6 |
| 20260509093051 | 10 | 174 | 0.0 | 8.0 | 0.00 | 0.03 | 0.00 | 78 | 1022.5 |
| 20260509092551 | 10 | 99 | 1.6 | 8.0 | 0.00 | 0.03 | 0.00 | 77 | 1022.5 |
| 20260509092050 | 10 | 49 | 1.6 | 6.4 | 0.00 | 0.03 | 0.00 | 76 | 1022.5 |
| 20260509091550 | 10 | 104 | 1.6 | 4.8 | 0.00 | 0.03 | 0.00 | 76 | 1022.5 |
| 20260509091050 | 10 | 87 | 1.6 | 6.4 | 0.00 | 0.03 | 0.00 | 76 | 1022.4 |
| 20260509090553 | 10 | 75 | 1.6 | 9.7 | 0.00 | 0.03 | 0.00 | 78 | 1022.5 |
| 20260509090059 | 10 | 355 | 3.2 | 9.7 | 0.00 | 0.03 | 0.00 | 77 | 1022.5 |
| 20260509085549 | 10 | 68 | 0.0 | 6.4 | 0.00 | 0.03 | 0.00 | 76 | 1022.5 |
| 20260509085049 | 10 | 65 | 1.6 | 6.4 | 0.00 | 0.03 | 0.00 | 77 | 1022.4 |
| 20260509084553 | 10 | 119 | 0.0 | 6.4 | 0.00 | 0.03 | 0.00 | 78 | 1022.4 |
| 20260509084050 | 10 | 65 | 0.0 | 6.4 | 0.00 | 0.03 | 0.00 | 76 | 1022.6 |
| 20260509083549 | 10 | 89 | 1.6 | 4.8 | 0.00 | 0.03 | 0.00 | 76 | 1022.5 |
| 20260509083057 | 10 | 87 | 1.6 | 6.4 | 0.00 | 0.03 | 0.00 | 75 | 1022.5 |
| 20260509082548 | 11 | 72 | 3.2 | 12.9 | 0.00 | 0.03 | 0.00 | 75 | 1022.5 |
| 20260509082049 | 11 | 85 | 1.6 | 12.9 | 0.00 | 0.03 | 0.00 | 75 | 1022.5 |
| 20260509081548 | 11 | 80 | 1.6 | 9.7 | 0.00 | 0.03 | 0.00 | 78 | 1022.4 |
| 20260509081048 | 10 | 78 | 1.6 | 6.4 | 0.00 | 0.03 | 0.00 | 76 | 1022.2 |
| 20260509080548 | 10 | 182 | 1.6 | 6.4 | 0.00 | 0.03 | 0.00 | 77 | 1022.3 |
| 20260509080047 | 10 | 134 | 0.0 | 6.4 | 0.00 | 0.03 | 0.00 | 74 | 1022.3 |
| 20260509075545 | 10 | 126 | 0.0 | 11.3 | 0.00 | 0.03 | 0.00 | 75 | 1022.4 |
| 20260509075044 | 10 | 84 | 3.2 | 16.1 | 0.00 | 0.03 | 0.00 | 75 | 1022.3 |
| 20260509074551 | 10 | 83 | 1.6 | 16.1 | 0.00 | 0.03 | 0.00 | 78 | 1022.4 |
| 20260509074043 | 10 | 89 | 4.8 | 9.7 | 0.00 | 0.03 | 0.00 | 79 | 1022.5 |
| 20260509073542 | 10 | 90 | 3.2 | 8.0 | 0.00 | 0.03 | 0.00 | 77 | 1022.5 |
| 20260509073040 | 10 | 78 | 1.6 | 6.4 | 0.00 | 0.03 | 0.00 | 79 | 1022.5 |
| 20260509072540 | 10 | 111 | 1.6 | 12.9 | 0.00 | 0.03 | 0.00 | 83 | 1022.5 |
| 20260509072039 | 10 | 76 | 3.2 | 14.5 | 0.00 | 0.03 | 0.00 | 83 | 1022.4 |
| 20260509071543 | 9 | 105 | 3.2 | 11.3 | 0.00 | 0.03 | 0.00 | 82 | 1022.3 |
| 20260509071037 | 9 | 40 | 3.2 | 12.9 | 0.00 | 0.03 | 0.00 | 85 | 1022.5 |
| 20260509070537 | 9 | 53 | 1.6 | 12.9 | 0.00 | 0.03 | 0.00 | 86 | 1022.4 |
| 20260509070036 | 9 | 90 | 4.8 | 14.5 | 0.00 | 0.03 | 0.00 | 85 | 1022.4 |
| 20260509065534 | 9 | 95 | 4.8 | 14.5 | 0.00 | 0.03 | 0.00 | 87 | 1022.4 |
| 20260509065033 | 9 | 86 | 1.6 | 11.3 | 0.00 | 0.03 | 0.00 | 89 | 1022.4 |
| 20260509064532 | 8 | 74 | 3.2 | 11.3 | 0.00 | 0.03 | 0.00 | 90 | 1022.3 |
| 20260509064031 | 8 | 94 | 3.2 | 9.7 | 0.00 | 0.03 | 0.00 | 91 | 1022.3 |
| 20260509063530 | 8 | 77 | 1.6 | 8.0 | 0.00 | 0.03 | 0.00 | 93 | 1022.4 |
| 20260509063028 | 7 | 63 | 0.0 | 6.4 | 0.00 | 0.03 | 0.00 | 93 | 1022.4 |
| 20260509062527 | 7 | 90 | 0.0 | 4.8 | 0.00 | 0.03 | 0.00 | 94 | 1022.4 |
| 20260509062026 | 7 | 90 | 0.0 | 4.8 | 0.00 | 0.03 | 0.00 | 93 | 1022.4 |
| 20260509061525 | 7 | 80 | 1.6 | 11.3 | 0.00 | 0.03 | 0.00 | 94 | 1022.3 |
| 20260509061030 | 7 | 58 | 1.6 | 11.3 | 0.00 | 0.03 | 0.00 | 94 | 1022.3 |
| 20260509060524 | 7 | 71 | 1.6 | 11.3 | 0.00 | 0.03 | 0.00 | 94 | 1022.2 |
| 20260509060023 | 7 | 87 | 1.6 | 11.3 | 0.00 | 0.03 | 0.00 | 94 | 1022.4 |
| 20260509055526 | 7 | 33 | 0.0 | 4.8 | 0.00 | 0.03 | 0.00 | 95 | 1022.4 |
| 20260509055021 | 7 | 71 | 1.6 | 4.8 | 0.00 | 0.03 | 0.00 | 95 | 1022.2 |